KAITUO 1B
1 40912U 15049P   18072.42345978  .00001375  00000-0  69806-4 0  9994
2 40912  97.4522  81.1159 0015137 352.4550 143.3487 15.18507750137137
TIANWANG 1C (TW-1C)
1 40926U 15051B   18072.49008038  .00008776  00000-0  17292-3 0  9995
2 40926  97.1963 115.3211 0008312 266.6685 200.3620 15.47415848138502
TIANWANG 1B (TW-1B)
1 40927U 15051C   18072.57255132  .00008303  00000-0  17054-3 0  9996
2 40927  97.2043 115.2885 0008130 280.6169 226.2126 15.46223862138432
TIANWANG 1A (TW-1A)
1 40928U 15051D   18072.53702692  .00003494  00000-0  95107-4 0  9993
2 40928  97.1968 108.3920 0010769 314.3697 189.0280 15.38119029138070
LAPAN A2
1 40931U 15052B   18071.53684662  .00000581  00000-0 -82464-5 0  9991
2 40931   5.9991 119.3435 0013838  79.8086 280.2920 14.76566459132696
LQSAT
1 40958U 15057A   18072.38633325  .00000014  00000-0  99842-5 0  9997
2 40958  97.9480 147.5984 0016749 286.1466  73.7899 14.73019906130741
CHUBUSAT 2
1 41338U 16012B   18071.75506735 +.00000402 +00000-0 +24683-4 0  9997
2 41338 031.0026 206.3045 0013834 199.0293 160.9826 14.99933313113344
CHUBUSAT 3
1 41339U 16012C   18072.51289388  .00000419  00000-0  25934-4 0  9993
2 41339  31.0098 200.2249 0013590 213.7593 146.2186 15.00125146113446
OUFTI-1
1 41458U 16025C   18072.20128237  .00001599  00000-0  86730-4 0  9991
2 41458  98.1480 129.8859 0172680 109.3138 252.6872 15.04335738103000
E-STAR-2
1 41459U 16025D   18072.12525449  .00001186  00000-0  65798-4 0  9992
2 41459  98.1467 129.6828 0173331 110.1346 251.8647 15.04085257102980
AAUSAT 4
1 41460U 16025E   18072.52385980  .00002074  00000-0  11079-3 0  9991
2 41460  98.1415 130.4625 0164975 105.5990 256.3525 15.05398929103099
NUSAT 1
1 41557U 16033B   18072.17545550  .00001466  00000-0  56154-4 0  9997
2 41557  97.4405 156.5628 0015140 132.9535 227.2977 15.28065059 99493
BEESAT 4
1 41619U 16040W   18071.75103331 +.00001406 +00000-0 +64947-4 0  9997
2 41619 097.4268 136.1933 0011150 200.7442 159.3343 15.21811710083424
PRATHAM
1 41783U 16059A   18072.17579381  .00000062  00000-0  21343-4 0  9998
2 41783  98.1297 135.2306 0034343  39.0628 321.3044 14.62905435 77927
ALSAT 1N
1 41789U 16059G   18072.21375484  .00000047  00000-0  18130-4 0  9990
2 41789  98.1297 136.2966 0029264  32.2004 328.0990 14.64132669 77977
NAYIF 1
1 42017U 17008BX  18072.51496752  .00001691  00000-0  72530-4 0  9995
2 42017  97.4593 138.1070 0006504  11.5316 348.6069 15.24112585 59492
LILACSAT-1
1 42725U 98067ME  18072.26917303  .00016042  00000-0  16635-3 0  9996
2 42725  51.6368 125.6959 0003563 241.4690 118.5946 15.64837622 45479
MAX VALIER SAT
1 42778U 17036P   18071.74774090  .00000952  00000-0  45841-4 0  9992
2 42778  97.4156 133.0134 0013968  53.2045 307.0470 15.21082110 39849
